Regional Weather Roundup
Issued by NWS Charleston, WV

Home | Current Version | Previous Version | Graphics & Text | Print | Product List | Glossary On
Versions: 1 2 3 4 5 6 7 8 9 10 11 12 13 14 15 16 17 18 19 20 21 22 23 24 25 26 27 28 29 30 31 32 33 34 35 36 37 38 39 40 41 42 43 44 45 46 47 48 49 50
000
ASUS41 KRLX 102110
RWRRLX
West Virginia Regional Weather Roundup
National Weather Service Charleston WV
400 PM EST WED FEB 10 2016

Note: "fair" indicates few or no clouds below 12,000 feet with no
significant weather and/or obstructions to visibility.

WVZ003-102200-
Northern Panhandle of West Virginia

CITY           SKY/WX    TMP DP  RH WIND       PRES   REMARKS
WHEELING       CLOUDY    20  11  68 W12G22    29.84S WCI   8
$$

WVZ009-102200-
Northwest West Virginia

CITY           SKY/WX    TMP DP  RH WIND       PRES   REMARKS
PARKERSBURG    LGT SNOW  20  15  81 W8        29.97R VSB 1
$$

WVZ006-102200-
Western West Virginia

CITY           SKY/WX    TMP DP  RH WIND       PRES   REMARKS
HUNTINGTON     CLOUDY    21   7  54 W13       30.00R WCI   9
$$

WVZ015-102200-
West Central West Virginia

CITY           SKY/WX    TMP DP  RH WIND       PRES   REMARKS
CHARLESTON     FLURRIES  21   7  54 W13G22    29.97R WCI   9
$$

WVZ022-031-102200-
North Central West Virginia

CITY           SKY/WX    TMP DP  RH WIND       PRES   REMARKS
CLARKSBURG     LGT SNOW  19  10  68 W15G22    29.88S WCI   5
MORGANTOWN     CLOUDY    19  10  68 W8        29.87R HAZE    WCI   9
$$

WVZ025-035-042-045-102200-
Southern West Virginia

CITY           SKY/WX    TMP DP  RH WIND       PRES   REMARKS
BECKLEY        LGT SNOW  16   8  71 W17       29.84R WCI   0
LOGAN          LGT SNOW  18   9  68 W13G20    29.94R WCI   4
BLUEFIELD      LGT SNOW  14   4  64 NW13G29   29.82R WCI   0
LEWISBURG      CLOUDY    20  10  64 NW10G16   29.83R WCI   9
$$

WVZ047-102200-
Northern Mountains of West Virginia

CITY           SKY/WX    TMP DP  RH WIND       PRES   REMARKS
ELKINS         LGT SNOW  16   7  67 VRB7      29.83R WCI   6
$$

WVZ052-102200-
Eastern Panhandle of West Virginia

CITY           SKY/WX    TMP DP  RH WIND       PRES   REMARKS
MARTINSBURG    PTSUNNY   29   8  41 W17G26    29.82R
PETERSBURG     CLOUDY    23   8  52 CALM      29.87S
$$



USA.gov is the U.S. government's official web portal to all federal, state and local government web resources and services.